Hourly Weather Holovyne

Today, 12 April, Monday

Time Temperature Precipitation Wind Pressure Humidity
00:00 +6°C° 0 mm 2 mps 751 mmHg 63%
01:00 +6°C° 0 mm 2 mps 750 mmHg 64%
02:00 +5°C° 0 mm 2 mps 750 mmHg 64%
03:00 +5°C° 0 mm 2 mps 750 mmHg 64%
04:00 +5°C° 0 mm 2 mps 750 mmHg 64%
05:00 +5°C° 0 mm 2 mps 749 mmHg 65%
06:00 +6°C° 0 mm 2 mps 749 mmHg 62%
07:00 +8°C° 0 mm 2 mps 749 mmHg 58%
08:00 +9°C° 0 mm 2 mps 749 mmHg 55%
09:00 +10°C° 0 mm 2 mps 749 mmHg 51%
10:00 +13°C° 0 mm 2 mps 748 mmHg 47%
11:00 +14°C° 0 mm 2 mps 748 mmHg 42%
12:00 +15°C° 0 mm 2 mps 748 mmHg 41%
13:00 +16°C° 0 mm 2 mps 747 mmHg 39%
14:00 +16°C° 0 mm 2 mps 747 mmHg 37%
15:00 +16°C° 0 mm 2 mps 747 mmHg 40%
16:00 +16°C° 0 mm 2 mps 747 mmHg 42%
17:00 +15°C° 0 mm 2 mps 746 mmHg 45%
18:00 +13°C° 0 mm 2 mps 747 mmHg 58%
19:00 +10°C° 0 mm 3 mps 747 mmHg 70%
20:00 +8°C° 0 mm 3 mps 747 mmHg 83%
21:00 +8°C° 0 mm 2 mps 747 mmHg 85%
22:00 +7°C° 0 mm 2 mps 747 mmHg 87%
23:00 +8°C° 0 mm 1 mps 747 mmHg 89%

Tomorrow, 13 April, Tuesday

Time Temperature Precipitation Wind Pressure Humidity
00:00 +8°C° 0 mm 1 mps 746 mmHg 88%
01:00 +7°C° 0 mm 1 mps 746 mmHg 87%
02:00 +6°C° 0 mm 0 mps 746 mmHg 86%
03:00 +6°C° 0 mm 0 mps 746 mmHg 86%
04:00 +6°C° 0 mm 0 mps 746 mmHg 86%
05:00 +7°C° 0 mm 1 mps 746 mmHg 85%
06:00 +8°C° 0 mm 1 mps 746 mmHg 82%
07:00 +9°C° 0 mm 1 mps 746 mmHg 79%
08:00 +10°C° 0 mm 1 mps 746 mmHg 75%
09:00 +11°C° 0 mm 1 mps 746 mmHg 74%
10:00 +11°C° 0 mm 1 mps 746 mmHg 73%
11:00 +12°C° 0 mm 1 mps 745 mmHg 72%
12:00 +12°C° 0 mm 2 mps 745 mmHg 75%
13:00 +10°C° 0 mm 2 mps 745 mmHg 78%
14:00 +10°C° 0 mm 2 mps 745 mmHg 80%
15:00 +10°C° 0.1 mm 2 mps 745 mmHg 83%
16:00 +9°C° 0.1 mm 2 mps 745 mmHg 87%
17:00 +9°C° 0.1 mm 2 mps 744 mmHg 90%
18:00 +9°C° 0.1 mm 2 mps 744 mmHg 92%
19:00 +9°C° 0.1 mm 2 mps 744 mmHg 93%
20:00 +8°C° 0.1 mm 2 mps 744 mmHg 95%
21:00 +8°C° 0 mm 2 mps 744 mmHg 95%
22:00 +8°C° 0 mm 2 mps 744 mmHg 95%
23:00 +8°C° 0 mm 3 mps 743 mmHg 95%

Day after tomorrow, 14 April, Wednesday

Time Temperature Precipitation Wind Pressure Humidity
00:00 +8°C° 0.1 mm 3 mps 743 mmHg 95%
01:00 +8°C° 0.1 mm 3 mps 743 mmHg 95%
02:00 +8°C° 0.1 mm 3 mps 743 mmHg 95%
03:00 +7°C° 0.1 mm 3 mps 742 mmHg 95%
04:00 +7°C° 0.1 mm 3 mps 742 mmHg 95%
05:00 +7°C° 0.1 mm 3 mps 742 mmHg 96%
06:00 +7°C° 0.1 mm 3 mps 742 mmHg 95%
07:00 +7°C° 0.1 mm 3 mps 742 mmHg 95%
08:00 +8°C° 0.1 mm 3 mps 742 mmHg 94%
09:00 +7°C° 0.2 mm 4 mps 742 mmHg 92%
10:00 +7°C° 0.2 mm 4 mps 742 mmHg 91%
11:00 +7°C° 0.2 mm 5 mps 742 mmHg 89%
12:00 +7°C° 0.2 mm 4 mps 742 mmHg 88%
13:00 +7°C° 0.2 mm 4 mps 742 mmHg 88%
14:00 +8°C° 0.2 mm 3 mps 742 mmHg 87%
15:00 +8°C° 0.2 mm 3 mps 742 mmHg 88%
16:00 +8°C° 0.2 mm 2 mps 742 mmHg 88%
17:00 +8°C° 0.2 mm 2 mps 742 mmHg 89%
18:00 +8°C° 0.1 mm 2 mps 742 mmHg 87%
19:00 +8°C° 0.1 mm 2 mps 742 mmHg 85%
20:00 +8°C° 0.1 mm 2 mps 742 mmHg 83%
21:00 +8°C° 0 mm 2 mps 742 mmHg 84%
22:00 +8°C° 0 mm 2 mps 742 mmHg 85%
23:00 +8°C° 0 mm 2 mps 742 mmHg 85%

15 April, Thursday

Time Temperature Precipitation Wind Pressure Humidity
00:00 +8°C° 0 mm 2 mps 742 mmHg 86%
01:00 +8°C° 0 mm 2 mps 742 mmHg 87%
02:00 +9°C° 0 mm 1 mps 742 mmHg 88%
03:00 +7°C° 0 mm 2 mps 742 mmHg 88%
04:00 +7°C° 0 mm 2 mps 742 mmHg 89%
05:00 +7°C° 0 mm 2 mps 742 mmHg 90%
06:00 +7°C° 0 mm 2 mps 742 mmHg 87%
07:00 +8°C° 0 mm 2 mps 742 mmHg 84%
08:00 +9°C° 0 mm 3 mps 742 mmHg 81%
09:00 +10°C° 0.2 mm 3 mps 742 mmHg 76%
10:00 +12°C° 0.2 mm 3 mps 741 mmHg 70%
11:00 +13°C° 0.2 mm 3 mps 741 mmHg 65%
12:00 +13°C° 0.6 mm 3 mps 741 mmHg 64%
13:00 +14°C° 0.6 mm 2 mps 741 mmHg 62%
14:00 +14°C° 0.6 mm 2 mps 741 mmHg 60%
15:00 +14°C° 0.6 mm 2 mps 741 mmHg 65%
16:00 +13°C° 0.6 mm 2 mps 740 mmHg 70%
17:00 +11°C° 0.6 mm 3 mps 740 mmHg 76%
18:00 +12°C° 0.2 mm 2 mps 740 mmHg 80%
19:00 +10°C° 0.2 mm 2 mps 740 mmHg 85%
20:00 +9°C° 0.2 mm 2 mps 741 mmHg 89%
21:00 +10°C° 0.1 mm 1 mps 740 mmHg 90%
22:00 +10°C° 0.1 mm 1 mps 740 mmHg 91%
23:00 +10°C° 0.1 mm 1 mps 740 mmHg 91%

16 April, Friday

Time Temperature Precipitation Wind Pressure Humidity
00:00 +9°C° 0 mm 1 mps 740 mmHg 92%
01:00 +8°C° 0 mm 1 mps 740 mmHg 93%
02:00 +7°C° 0 mm 2 mps 740 mmHg 94%
03:00 +8°C° 0 mm 1 mps 740 mmHg 94%
04:00 +8°C° 0 mm 1 mps 739 mmHg 93%
05:00 +8°C° 0 mm 1 mps 739 mmHg 92%
06:00 +8°C° 0.6 mm 1 mps 739 mmHg 93%
07:00 +8°C° 0.6 mm 1 mps 739 mmHg 93%
08:00 +9°C° 0.6 mm 1 mps 739 mmHg 94%
09:00 +8°C° 1.1 mm 2 mps 739 mmHg 93%
10:00 +8°C° 1.1 mm 2 mps 739 mmHg 92%
11:00 +9°C° 1.1 mm 2 mps 739 mmHg 92%
12:00 +9°C° 1.5 mm 2 mps 739 mmHg 90%
13:00 +9°C° 1.5 mm 2 mps 739 mmHg 89%
14:00 +10°C° 1.5 mm 2 mps 739 mmHg 88%
15:00 +10°C° 0.2 mm 2 mps 739 mmHg 84%
16:00 +12°C° 0.2 mm 2 mps 739 mmHg 81%
17:00 +12°C° 0.2 mm 2 mps 739 mmHg 78%
18:00 +10°C° 0.1 mm 2 mps 739 mmHg 82%
19:00 +9°C° 0.1 mm 2 mps 740 mmHg 86%
20:00 +7°C° 0.1 mm 2 mps 740 mmHg 89%
21:00 +7°C° 0 mm 2 mps 740 mmHg 90%
22:00 +8°C° 0 mm 1 mps 741 mmHg 90%
23:00 +8°C° 0 mm 1 mps 741 mmHg 91%

17 April, Saturday

Time Temperature Precipitation Wind Pressure Humidity
00:00 +7°C° 0 mm 2 mps 741 mmHg 92%
01:00 +7°C° 0 mm 2 mps 742 mmHg 93%
02:00 +6°C° 0 mm 2 mps 742 mmHg 94%
03:00 +6°C° 0 mm 2 mps 742 mmHg 94%
04:00 +6°C° 0 mm 2 mps 743 mmHg 95%
05:00 +6°C° 0 mm 2 mps 743 mmHg 95%
06:00 +7°C° 0 mm 2 mps 744 mmHg 91%
07:00 +7°C° 0 mm 2 mps 744 mmHg 87%
08:00 +8°C° 0 mm 3 mps 745 mmHg 83%
09:00 +9°C° 0 mm 3 mps 745 mmHg 78%
10:00 +10°C° 0 mm 4 mps 745 mmHg 73%
11:00 +11°C° 0 mm 4 mps 746 mmHg 68%
12:00 +11°C° 0 mm 4 mps 746 mmHg 65%
13:00 +11°C° 0 mm 4 mps 746 mmHg 63%
14:00 +12°C° 0 mm 4 mps 746 mmHg 60%
15:00 +12°C° 0 mm 4 mps 747 mmHg 61%
16:00 +12°C° 0 mm 4 mps 747 mmHg 62%
17:00 +12°C° 0 mm 4 mps 747 mmHg 63%
18:00 +11°C° 0 mm 3 mps 748 mmHg 67%
19:00 +10°C° 0 mm 2 mps 748 mmHg 70%
20:00 +9°C° 0 mm 2 mps 748 mmHg 74%
21:00 +9°C° 0 mm 2 mps 748 mmHg 74%
22:00 +9°C° 0 mm 1 mps 749 mmHg 74%
23:00 +9°C° 0 mm 1 mps 749 mmHg 75%
Show more